Regional Weather Roundup
Issued by NWS

Home | Current Version | Previous Version | Graphics & Text | Print | Product List | Glossary On
Versions: 1 2 3 4 5 6 7 8 9 10 11 12 13 14 15 16 17 18 19 20 21 22 23 24 25 26 27 28 29 30 31 32 33 34 35 36 37 38 39 40 41 42 43 44 45 46 47 48 49 50
040
ASUS45 KBOU 230410
RWRCO

WEATHER ROUNDUP FOR COLORADO
NATIONAL WEATHER SERVICE DENVER/BOULDER CO
900 PM MST WED NOV 22 2017

NOTE: "FAIR" INDICATES FEW OR NO CLOUDS BELOW 12000 FEET WITH NO
SIGNIFICANT WEATHER AND/OR OBSTRUCTIONS TO VISIBILITY.

COZ001>005-013-030-031-230500-
...NORTHWEST COLORADO...

CITY           SKY/WX    TMP DP  RH WIND       PRES   REMARKS
CRAIG          FAIR      34  31  88 CALM      30.44S
HAYDEN         MOCLDY    41  35  79 E9        30.45F
MEEKER         FAIR      38  34  85 NE3       30.45S
RABBIT EARS PA FOG      N/A N/A N/A W8G17     30.55F VSB 3/4
STEAMBOAT SPGS CLOUDY    36  35  96 E3        30.45F
WALDEN         MOCLDY    34  30  86 NE3       30.48R
$$

COZ006>008-011-230500-
...WEST CENTRAL VALLEYS...

CITY           SKY/WX    TMP DP  RH WIND       PRES   REMARKS
GRAND JUNCTION FAIR      47  32  56 E5        30.40S
MONTROSE       FAIR      39  31  72 SE6       30.46R
EAGLE          CLOUDY    38  33  82 CALM      30.51S
RIFLE          FAIR      38  34  85 CALM      30.45S
DELTA          FAIR      44  29  56 NE3       30.44R
NUCLA          FAIR      50  32  50 CALM      30.46R
$$

COZ017>023-064>068-230500-
...SOUTHWEST COLORADO...

CITY           SKY/WX    TMP DP  RH WIND       PRES   REMARKS
DURANGO        FAIR      36  24  62 VRB3      30.40S
CORTEZ         FAIR      39  28  64 E8        30.38S
PAGOSA SPRINGS FAIR      39  23  52 CALM      30.43F
TELLURIDE      FAIR      38  30  73 S5        30.55S
WOLF CREEK PAS NOT AVBL
$$

COZ009-010-012-014-032>034-037-058>063-230500-
...CENTRAL COLORADO...

CITY           SKY/WX    TMP DP  RH WIND       PRES   REMARKS
ASPEN          MOCLDY    37  32  82 S6        30.50S
BUENA VISTA    FAIR      42  33  71 W10       30.46F
COPPER MTN     SNOW      34  32  93 MISG      30.62S VSB 1/4
BERTHOUD PASS  CLOUDY    27  18  69 NW29G43   30.58R WCI  11
COTTONWOOD PAS FAIR      43  34  70 N7        30.53S
GUNNISON       FAIR      34  29  82 N5        30.50R WCI  30
KREMMLING      MOCLDY    41  36  81 E3        30.49S
LEADVILLE      MOCLDY    35  30  82 NW6       30.52S WCI  30
MONARCH PASS   FAIR      32  28  86 NW14G22   30.74R WCI  22
SALIDA         FAIR      49  35  56 N9        30.50S
SUNLIGHT       FAIR      32  30  93 N5        30.64F WCI  27
WILKERSON PASS FAIR      34  28  80 NW15G25   30.56S WCI  24
$$

COZ069>075-230500-
...SAN LUIS VALLEY/SANGRE DE CRISTO MOUNTAINS...

CITY           SKY/WX    TMP DP  RH WIND       PRES   REMARKS
ALAMOSA        FAIR      42  30  62 N8        30.41F
DEL NORTE      FAIR      43  29  56 E3        30.44S
LA VETA PASS   FAIR      37  28  70 SW7         N/A
SAGUACHE       FAIR      43  32  65 N9        30.45F
$$

COZ035-036-038>040-230500-
...NORTHERN COLORADO FRONT RANGE...

CITY           SKY/WX    TMP DP  RH WIND       PRES   REMARKS
DENVER INTL AP FAIR      51  34  52 SW8       30.26S
DMNS CITY PARK   N/A     51  34  52 E9        30.26S
AURORA         PTCLDY    51  35  53 S6        30.27F
FRONT RANGE AP MOCLDY    54  37  54 SW8       30.27F
ERIE MUNI ARPT FAIR      45  34  65 CALM      30.30R
BOULDER MUN AP FAIR      57  34  41 W7        30.24S
CENTENNIAL     FAIR      50  35  56 SW5       30.28S
BROOMFIELD     PTCLDY    57  34  41 W21       30.26F
FORT COLLINS   FAIR      47  36  65 S7        30.25R
LONGMONT       FAIR      46  34  62 W3        30.27R
$$

COZ041-046-047-076>085-087-088-230500-
...PIKES PEAK/PALMER DIVIDE AND SOUTHERN FOOTHILLS...

CITY           SKY/WX    TMP DP  RH WIND       PRES   REMARKS
COLO. SPRINGS  FAIR      45  32  60 N8        30.32S
A. F. ACADEMY  FAIR      39  30  71 N3        30.32S
SCHRIEVER AFB  FAIR      49  32  51 NW6       30.31S
CHEYENNE MTN   FAIR      52  30  43 W3        30.30R
ELLICOTT         N/A      1   1 100 NE10      30.30S WCI -15
FALCON         FAIR      47  32  56 NW7       30.34S
FORT CARSON    FAIR      45  31  58 NW13      30.29R
LIMON          FAIR      42  34  73 NW6       30.27S
MONUMENT HILL  FAIR      39  32  75 W7        30.36S
CANON CITY     FAIR      54  34  47 S3        30.29S
WALSENBURG     FAIR      54  34  47 W9        30.31R
TRINIDAD       FAIR      45  28  51 W14       30.29S
$$

COZ042>045-048>051-090-091-230500-
...NORTHEAST COLORADO...

CITY           SKY/WX    TMP DP  RH WIND       PRES   REMARKS
GREELEY ARPT   FAIR      43  34  70 CALM      30.25R
AKRON          FAIR      48  35  60 NW13      30.22R
BURLINGTON     FAIR      45  34  65 NW9       30.20R
WRAY           NOT AVBL
YUMA           FAIR      45  36  70 W9        30.19R
STERLING       FAIR      52  39  62 NW10      30.18R
HOLYOKE        FAIR      46  36  66 W10       30.16S
FORT MORGAN    FAIR      55  36  48 NW16      30.23R
$$

COZ086-089-092>099-230500-
...SOUTHEAST COLORADO...

CITY           SKY/WX    TMP DP  RH WIND       PRES   REMARKS
PUEBLO         FAIR      44  30  57 SW8       30.25R
LA JUNTA       FAIR      48  30  49 W8        30.23R
LAMAR          FAIR      39  24  55 SW5       30.18S
SPRINGFIELD      N/A     41  28  60 W6        30.22F
$$




USA.gov is the U.S. government's official web portal to all federal, state and local government web resources and services.